QPF
0.00 0.00 0.00 0.00 0.00 0.00 0.00 0.00 0.00 0.00 0.00 0.00 0.00 0.00 0.00 0.00 0.00 0.00 0.00 0.00 0.00 0.00 0.00 0.00 0.00 0.00 0.00 0.00 0.00 0.00 0.00 0.00 0.00 0.00 0.00 0.00 0.00 0.00 0.00 0.00 0.00 0.00 0.00 0.00 0.00
0.00 0.00 0.00 0.00 0.00 0.00 0.00 0.00 0.00 0.00 0.00 0.00 0.00 0.00 0.00 0.00 0.00 0.00 0.00 0.00 0.00 0.00 0.00 0.00 0.00 0.00 0.00 0.00 0.00 0.00 0.00 0.00 0.00 0.00 0.00 0.00 0.00 0.00 0.00 0.00 0.00 0.00 0.00 0.00 0.00
0.00 0.00 0.00 0.00 0.00 0.00 0.00 0.00 0.00 0.00 0.00 0.00 0.00 0.00 0.00 0.00 0.00 0.00 0.00 0.00 0.00 0.00 0.00 0.00 0.00 0.00 0.00 0.00 0.00 0.00 0.00 0.00 0.00 0.00 0.00 0.00 0.00 0.00 0.00 0.00 0.00 0.00 0.00 0.00 0.00
0.00 0.00 0.00 0.00 0.00 0.00 0.00 0.00 0.00 0.00 0.00 0.00 0.00 0.00 0.00 0.00 0.00 0.00 0.00 0.00 0.00 0.00 0.00 0.00 0.00 0.00 0.00 0.00 0.00 0.00 0.00 0.00 0.00 0.00 0.00 0.00 0.00 0.00 0.00 0.00 0.00 0.00 0.00 0.00 0.00
0.00 0.00 0.00 0.00 0.00 0.00 0.00 0.00 0.00 0.00 0.00 0.00 0.00 0.00 0.00 0.00 0.00 0.00 0.00 0.00 0.00 0.00 0.00 0.00 0.00 0.00 0.00 0.00 0.00 0.00 0.00 0.00 0.00 0.00 0.00 0.00 0.00 0.00 0.00 0.02 0.01 0.00 0.00 0.00 0.00
0.00 0.00 0.00 0.00 0.00 0.00 0.00 0.00 0.00 0.00 0.00 0.00 0.00 0.00 0.00 0.00 0.00 0.00 0.00 0.00 0.00 0.00 0.00 0.00 0.00 0.00 0.00 0.00 0.00 0.00 0.00 0.00 0.00 0.00 0.00 0.00 0.00 0.00 0.00 0.01 0.01 0.01 0.00 0.00 0.00
0.00 0.00 0.00 0.00 0.00 0.00 0.00 0.00 0.00 0.00 0.00 0.00 0.00 0.00 0.00 0.00 0.00 0.00 0.00 0.00 0.00 0.00 0.00 0.00 0.00 0.00 0.00 0.00 0.00 0.00 0.00 0.00 0.00 0.00 0.00 0.00 0.00 0.00 0.00 0.00 0.00 0.02 0.01 0.01 0.01
0.00 0.00 0.00 0.00 0.00 0.00 0.00 0.00 0.00 0.00 0.00 0.00 0.00 0.00 0.00 0.00 0.00 0.00 0.00 0.00 0.00 0.00 0.00 0.00 0.00 0.00 0.00 0.00 0.00 0.00 0.00 0.00 0.00 0.00 0.00 0.00 0.00 0.00 0.00 0.00 0.00 0.00 0.01 0.01 0.04
0.00 0.00 0.00 0.00 0.00 0.00 0.00 0.00 0.00 0.00 0.00 0.00 0.00 0.00 0.00 0.00 0.00 0.00 0.00 0.00 0.00 0.00 0.00 0.00 0.00 0.00 0.00 0.00 0.00 0.00 0.00 0.00 0.00 0.00 0.00 0.00 0.00 0.00 0.00 0.00 0.00 0.00 0.00 0.03 0.05
0.00 0.00 0.00 0.00 0.00 0.00 0.00 0.00 0.00 0.00 0.00 0.00 0.00 0.00 0.00 0.00 0.00 0.00 0.00 0.00 0.00 0.00 0.00 0.00 0.00 0.00 0.00 0.00 0.00 0.00 0.00 0.00 0.00 0.00 0.00 0.00 0.00 0.00 0.00 0.00 0.00 0.00 0.00 0.03 0.10
0.00 0.00 0.00 0.00 0.00 0.00 0.00 0.00 0.00 0.00 0.00 0.00 0.00 0.00 0.00 0.00 0.00 0.00 0.00 0.00 0.00 0.00 0.00 0.00 0.00 0.00 0.00 0.00 0.00 0.00 0.00 0.00 0.00 0.00 0.00 0.00 0.00 0.00 0.00 0.00 0.00 0.00 0.01 0.01 0.13
0.00 0.00 0.00 0.00 0.00 0.00 0.00 0.00 0.00 0.00 0.00 0.00 0.00 0.00 0.00 0.00 0.00 0.00 0.00 0.00 0.00 0.00 0.00 0.00 0.00 0.00 0.00 0.00 0.00 0.00 0.00 0.00 0.00 0.00 0.00 0.00 0.00 0.00 0.00 0.00 0.00 0.00 0.00 0.02 0.05
0.00 0.00 0.00 0.00 0.00 0.00 0.00 0.00 0.00 0.00 0.00 0.00 0.00 0.00 0.00 0.00 0.00 0.00 0.00 0.00 0.00 0.00 0.00 0.00 0.00 0.00 0.00 0.00 0.00 0.00 0.00 0.00 0.00 0.00 0.00 0.00 0.00 0.00 0.00 0.00 0.00 0.00 0.00 0.00 0.05
0.00 0.00 0.00 0.00 0.00 0.00 0.00 0.00 0.00 0.00 0.00 0.00 0.00 0.00 0.00 0.00 0.00 0.00 0.00 0.00 0.00 0.00 0.00 0.00 0.00 0.00 0.00 0.00 0.00 0.00 0.00 0.00 0.00 0.00 0.00 0.00 0.00 0.00 0.00 0.00 0.00 0.00 0.00 0.00 0.00
0.00 0.00 0.00 0.00 0.00 0.00 0.00 0.00 0.00 0.00 0.00 0.00 0.00 0.00 0.00 0.00 0.00 0.00 0.00 0.00 0.00 0.00 0.00 0.00 0.00 0.00 0.00 0.00 0.00 0.00 0.00 0.00 0.00 0.00 0.00 0.00 0.00 0.00 0.00 0.00 0.00 0.00 0.00 0.00 0.00
0.00 0.00 0.00 0.00 0.00 0.00 0.00 0.00 0.00 0.00 0.00 0.00 0.00 0.00 0.00 0.00 0.00 0.00 0.00 0.00 0.00 0.00 0.00 0.00 0.00 0.00 0.00 0.00 0.00 0.00 0.00 0.00 0.00 0.00 0.00 0.00 0.00 0.00 0.00 0.00 0.00 0.00 0.00 0.00 0.00
0.00 0.00 0.00 0.00 0.00 0.00 0.00 0.00 0.00 0.00 0.00 0.00 0.00 0.00 0.00 0.00 0.00 0.00 0.00 0.00 0.00 0.00 0.00 0.00 0.00 0.00 0.00 0.00 0.00 0.00 0.00 0.00 0.00 0.00 0.00 0.00 0.00 0.00 0.00 0.00 0.00 0.00 0.00 0.00 0.00
0.00 0.00 0.00 0.00 0.00 0.00 0.00 0.00 0.00 0.00 0.00 0.00 0.00 0.00 0.00 0.00 0.00 0.00 0.00 0.00 0.00 0.00 0.00 0.00 0.00 0.00 0.00 0.00 0.00 0.00 0.00 0.00 0.00 0.00 0.00 0.00 0.00 0.00 0.00 0.00 0.00 0.00 0.00 0.00 0.00
0.00 0.00 0.00 0.00 0.00 0.00 0.00 0.00 0.00 0.00 0.00 0.00 0.00 0.00 0.00 0.00 0.00 0.00 0.00 0.00 0.00 0.00 0.00 0.00 0.00 0.00 0.00 0.00 0.00 0.00 0.00 0.00 0.00 0.00 0.00 0.00 0.00 0.00 0.00 0.00 0.00 0.00 0.00 0.00 0.00
0.00 0.00 0.00 0.00 0.00 0.00 0.00 0.00 0.00 0.00 0.00 0.00 0.00 0.00 0.00 0.00 0.00 0.00 0.00 0.00 0.00 0.00 0.00 0.00 0.00 0.00 0.00 0.00 0.00 0.00 0.00 0.00 0.00 0.00 0.00 0.00 0.00 0.00 0.00 0.00 0.00 0.00 0.00 0.00 0.00
0.00 0.00 0.00 0.00 0.00 0.00 0.00 0.00 0.00 0.00 0.00 0.00 0.00 0.00 0.00 0.00 0.00 0.00 0.00 0.00 0.00 0.00 0.00 0.00 0.00 0.00 0.00 0.00 0.00 0.00 0.00 0.00 0.00 0.00 0.00 0.00 0.00 0.00 0.00 0.00 0.00 0.00 0.00 0.00 0.00
0.00 0.00 0.00 0.00 0.00 0.00 0.00 0.00 0.00 0.00 0.01 0.00 0.00 0.00 0.00 0.00 0.00 0.00 0.00 0.00 0.00 0.00 0.00 0.00 0.00 0.00 0.00 0.00 0.00 0.00 0.00 0.00 0.00 0.00 0.00 0.00 0.00 0.00 0.00 0.00 0.00 0.00 0.00 0.00 0.00
0.00 0.00 0.00 0.00 0.00 0.00 0.00 0.00 0.00 0.01 0.01 0.00 0.01 0.00 0.00 0.00 0.00 0.00 0.00 0.00 0.00 0.00 0.00 0.00 0.00 0.00 0.00 0.00 0.00 0.00 0.00 0.00 0.00 0.00 0.00 0.00 0.00 0.00 0.00 0.00 0.00 0.00 0.00 0.00 0.00
0.00 0.00 0.00 0.00 0.00 0.00 0.00 0.00 0.00 0.00 0.00 0.00 0.00 0.00 0.00 0.00 0.00 0.00 0.00 0.00 0.00 0.00 0.00 0.00 0.00 0.00 0.00 0.00 0.00 0.00 0.00 0.00 0.00 0.00 0.00 0.00 0.00 0.00 0.00 0.00 0.00 0.00 0.00 0.00 0.00
0.00 0.00 0.00 0.00 0.00 0.00 0.02 0.01 0.01 0.00 0.00 0.00 0.00 0.01 0.01 0.00 0.00 0.00 0.00 0.00 0.00 0.00 0.00 0.00 0.00 0.00 0.00 0.00 0.00 0.00 0.00 0.00 0.00 0.00 0.00 0.00 0.00 0.00 0.00 0.00 0.00 0.00 0.00 0.00 0.00
0.00 0.00 0.00 0.00 0.01 0.01 0.02 0.01 0.01 0.00 0.00 0.00 0.00 0.01 0.01 0.00 0.00 0.00 0.00 0.00 0.00 0.00 0.00 0.00 0.00 0.00 0.00 0.00 0.00 0.00 0.00 0.00 0.00 0.00 0.00 0.00 0.00 0.00 0.00 0.00 0.00 0.00 0.00 0.00 0.00
0.00 0.00 0.00 0.00 0.01 0.00 0.04 0.05 0.01 0.00 0.00 0.00 0.00 0.00 0.00 0.00 0.00 0.01 0.00 0.00 0.00 0.00 0.00 0.00 0.00 0.00 0.00 0.00 0.00 0.00 0.00 0.00 0.00 0.00 0.00 0.00 0.00 0.00 0.00 0.00 0.00 0.00 0.00 0.00 0.00
MSLP
1016.86 1016.41 1015.94 1015.61 1015.24 1014.97 1014.58 1014.12 1013.75 1013.46 1013.25 1013.02 1012.66 1012.20 1011.79 1011.21 1010.23 1009.48 1008.30 1005.54 1005.30 1004.81 1004.87 1004.68 1004.85 1004.43 1004.28 1005.47 1006.36 1007.47 1008.06 1007.87 1006.64 1004.77 1003.55 1002.88 1003.29 1004.02 1004.26 1005.18 1005.55 1006.24 1006.61 1007.88 1009.14
1016.88 1016.45 1016.05 1015.59 1015.23 1014.80 1014.45 1014.16 1013.81 1013.41 1013.05 1012.74 1012.52 1012.12 1011.71 1011.31 1010.44 1008.40 1004.89 1004.47 1004.50 1004.67 1004.81 1004.65 1005.11 1004.81 1004.55 1005.23 1006.13 1006.93 1007.19 1006.26 1005.03 1004.06 1003.24 1002.99 1003.30 1003.81 1004.50 1005.29 1006.29 1006.72 1007.47 1008.49 1009.47
1016.98 1016.59 1016.13 1015.69 1015.24 1014.86 1014.43 1014.03 1013.64 1013.33 1013.00 1012.57 1012.21 1011.96 1011.57 1011.14 1010.05 1005.84 1003.88 1004.05 1004.32 1004.46 1004.86 1004.89 1004.96 1005.06 1004.64 1004.74 1005.38 1005.61 1004.96 1004.27 1003.56 1003.09 1002.80 1003.00 1003.33 1003.93 1004.97 1005.84 1006.30 1006.73 1007.66 1008.55 1009.44
1017.03 1016.63 1016.24 1015.79 1015.30 1014.84 1014.45 1014.04 1013.61 1013.24 1012.96 1012.57 1012.03 1011.48 1011.14 1011.07 1008.51 1004.33 1003.79 1003.92 1004.12 1004.44 1004.88 1004.77 1004.74 1004.93 1004.90 1004.46 1004.23 1004.61 1003.57 1002.93 1002.62 1002.25 1002.48 1003.11 1003.86 1004.54 1005.02 1005.40 1006.26 1006.49 1007.09 1008.30 1009.27
1017.03 1016.61 1016.15 1015.78 1015.33 1014.83 1014.32 1013.88 1013.55 1013.14 1012.76 1012.45 1012.01 1011.57 1010.86 1009.94 1006.75 1003.89 1003.89 1004.12 1004.25 1004.62 1004.66 1004.64 1004.50 1004.40 1004.25 1003.64 1003.31 1003.25 1002.84 1002.52 1002.11 1002.23 1002.74 1003.07 1004.01 1004.47 1005.34 1005.54 1005.96 1006.29 1007.81 1008.37 1009.05
1016.93 1016.55 1016.08 1015.57 1015.15 1014.66 1014.18 1013.66 1013.18 1012.86 1012.56 1012.29 1012.03 1011.80 1011.32 1008.94 1004.24 1003.58 1003.83 1004.19 1004.19 1004.38 1004.37 1004.35 1003.98 1004.04 1003.86 1003.48 1002.71 1002.01 1001.80 1002.01 1001.78 1002.33 1002.93 1003.38 1004.37 1004.49 1006.06 1006.21 1006.43 1006.99 1007.68 1008.20 1008.66
1016.91 1016.42 1015.99 1015.51 1014.98 1014.43 1013.90 1013.39 1012.89 1012.44 1012.16 1011.90 1011.74 1011.59 1010.64 1006.42 1003.81 1003.94 1004.45 1004.05 1003.47 1003.43 1003.96 1003.57 1003.66 1004.08 1003.52 1003.19 1002.17 1001.64 1001.73 1002.07 1001.97 1002.40 1003.02 1003.49 1004.52 1005.58 1006.16 1006.25 1007.05 1007.36 1008.16 1008.58 1009.02
1016.87 1016.38 1015.91 1015.38 1014.86 1014.31 1013.63 1012.98 1012.35 1011.94 1011.73 1011.57 1011.48 1011.26 1008.84 1004.45 1004.11 1003.97 1003.60 1003.79 1003.23 1003.14 1003.44 1002.93 1003.34 1003.50 1003.68 1002.92 1002.48 1002.32 1002.24 1002.43 1002.11 1002.71 1002.87 1003.37 1004.39 1006.10 1006.02 1006.58 1007.26 1007.43 1007.83 1008.24 1008.82
1016.76 1016.31 1015.76 1015.25 1014.75 1014.13 1013.43 1012.42 1011.56 1011.24 1011.27 1011.37 1011.44 1010.83 1007.47 1003.93 1003.62 1002.82 1003.19 1003.45 1003.19 1002.92 1002.68 1002.65 1002.88 1003.44 1003.45 1003.72 1003.77 1003.32 1002.98 1002.77 1002.17 1001.81 1002.53 1003.54 1004.20 1005.19 1005.88 1006.81 1007.31 1007.59 1008.06 1008.38 1008.69
1016.54 1016.12 1015.63 1015.08 1014.55 1014.05 1013.19 1011.74 1010.86 1010.89 1011.01 1011.06 1010.65 1010.27 1006.33 1003.78 1002.73 1002.38 1002.41 1002.89 1003.33 1003.34 1003.11 1003.13 1003.56 1003.95 1004.27 1004.74 1004.64 1003.95 1003.40 1002.76 1002.17 1001.66 1001.94 1003.13 1003.73 1004.92 1005.82 1006.30 1006.80 1007.27 1007.95 1009.22 1009.94
1016.33 1015.84 1015.35 1014.83 1014.45 1014.07 1013.30 1012.28 1011.38 1011.03 1010.63 1009.08 1008.14 1006.79 1004.77 1003.42 1002.37 1002.33 1002.26 1002.75 1003.25 1003.67 1003.99 1003.82 1004.58 1004.70 1004.11 1004.29 1004.45 1004.22 1003.73 1002.49 1001.43 1001.34 1002.00 1002.81 1003.79 1004.66 1005.16 1006.25 1007.20 1007.07 1007.62 1008.80 1009.47
1016.19 1015.61 1015.04 1014.50 1014.01 1013.84 1013.97 1012.90 1010.26 1009.68 1009.18 1007.43 1006.71 1005.98 1004.28 1004.40 1003.95 1002.46 1002.18 1003.25 1003.47 1004.02 1004.22 1004.80 1004.67 1003.75 1004.05 1004.02 1004.08 1003.80 1003.10 1002.20 1001.55 1001.27 1001.95 1002.91 1004.03 1004.73 1005.48 1006.25 1006.01 1006.93 1007.51 1008.66 1009.07
1015.99 1015.48 1014.86 1014.12 1013.39 1013.16 1012.94 1011.13 1008.96 1009.38 1008.91 1006.17 1004.98 1004.51 1003.50 1003.46 1003.28 1002.10 1002.09 1002.69 1003.30 1004.08 1004.33 1004.79 1003.68 1003.71 1004.01 1003.69 1003.59 1003.16 1002.46 1001.86 1001.51 1001.61 1002.66 1003.51 1005.14 1005.51 1005.75 1006.40 1006.24 1006.59 1006.69 1008.41 1007.89
1015.77 1015.29 1014.83 1013.83 1013.20 1013.14 1011.62 1008.98 1009.08 1009.26 1008.92 1005.49 1003.61 1002.03 1002.32 1002.44 1002.37 1001.16 1001.35 1002.32 1003.10 1003.59 1004.47 1004.60 1003.17 1003.65 1003.50 1003.38 1003.02 1002.72 1001.37 1001.32 1001.94 1002.80 1004.11 1004.59 1006.14 1006.21 1005.71 1005.94 1006.34 1006.56 1007.10 1007.26 1007.51
1015.44 1015.06 1014.78 1014.73 1014.25 1013.14 1009.81 1009.24 1008.91 1008.92 1007.95 1003.13 1001.77 1000.01 1000.60 1001.75 1001.33 1000.62 1000.85 1001.71 1002.57 1003.22 1004.09 1003.47 1002.97 1003.12 1003.09 1002.37 1001.98 1001.89 1001.24 1001.68 1002.35 1003.61 1004.94 1005.92 1006.44 1005.47 1005.90 1005.79 1005.82 1006.42 1006.84 1006.98 1006.71
1014.99 1014.66 1014.48 1014.03 1014.04 1011.33 1010.32 1009.38 1008.77 1009.33 1006.55 1002.37 1000.76 1000.56 1001.17 1001.52 1001.26 1000.87 1001.19 1001.53 1002.16 1003.23 1003.43 1003.16 1002.11 1002.26 1001.70 1001.17 1001.19 1001.13 1001.78 1002.66 1004.14 1005.35 1006.85 1006.92 1007.02 1005.79 1005.05 1003.87 1004.94 1005.69 1005.98 1006.36 1006.51
1014.23 1013.98 1014.18 1013.73 1012.05 1010.72 1010.11 1009.71 1009.96 1008.45 1004.66 1002.47 1001.31 1000.79 1001.20 1001.57 1001.57 1001.65 1001.85 1002.15 1002.58 1003.55 1003.67 1003.21 1002.26 1001.43 1001.08 1001.24 1001.04 1001.21 1002.77 1004.39 1006.25 1007.18 1008.09 1007.53 1007.52 1004.87 1003.29 1003.18 1003.12 1003.71 1005.05 1004.78 1005.29
1013.31 1012.92 1012.32 1012.06 1011.24 1011.36 1010.54 1010.70 1009.95 1007.01 1004.99 1002.73 1001.81 1001.93 1001.75 1001.55 1001.71 1001.86 1002.26 1002.57 1003.01 1003.44 1004.20 1003.87 1002.42 1001.01 1000.39 1000.58 1000.74 1001.53 1002.79 1004.73 1006.71 1008.31 1008.28 1007.63 1006.65 1004.06 1002.51 1002.18 1002.15 1002.34 1002.58 1003.23 1004.68
1012.61 1011.91 1011.69 1009.89 1011.01 1011.47 1011.24 1010.98 1009.09 1006.40 1004.36 1003.89 1002.15 1001.85 1002.17 1001.81 1001.67 1002.01 1002.42 1002.57 1002.36 1002.88 1003.87 1003.56 1002.19 1000.58 1000.03 999.84 1000.36 1001.41 1002.69 1003.23 1005.62 1007.77 1008.31 1007.48 1006.06 1003.77 1001.78 1001.50 1001.62 1001.63 1001.96 1002.75 1003.13
1012.45 1011.72 1010.05 1008.77 1009.97 1010.78 1011.14 1010.23 1008.13 1005.69 1004.87 1003.93 1003.34 1002.14 1001.97 1001.60 1001.73 1001.97 1001.73 1001.32 1001.60 1001.68 1002.15 1002.91 1002.64 1000.99 1000.09 999.92 999.96 1000.50 1001.60 1003.68 1005.95 1007.50 1008.25 1007.57 1006.26 1004.16 1002.65 1002.25 1001.85 1001.17 1001.59 1002.01 1002.39
1012.23 1011.21 1008.76 1008.61 1009.48 1010.69 1011.06 1009.63 1007.11 1005.26 1005.00 1004.34 1003.35 1002.84 1001.79 1001.38 1001.21 1001.21 1001.10 1000.28 1000.21 1000.69 1001.64 1002.37 1003.05 1001.25 1001.04 1000.51 1000.49 1000.82 1001.76 1003.53 1005.09 1006.47 1007.46 1007.57 1006.22 1003.67 1003.10 1002.55 1001.45 1000.78 1000.79 1001.34 1001.96
1012.33 1010.87 1008.77 1008.50 1009.94 1010.37 1010.14 1008.51 1006.78 1005.13 1004.46 1004.37 1002.94 1001.81 1001.19 1000.85 1000.86 1000.51 1000.07 999.19 998.83 999.37 1000.83 1001.73 1002.34 1002.52 1001.76 1000.26 999.93 999.98 1000.99 1002.46 1004.96 1006.21 1006.58 1006.23 1004.94 1003.38 1002.62 1002.41 1001.27 1000.82 1001.12 1001.35 1002.07
1013.22 1010.79 1008.85 1008.64 1009.74 1010.16 1009.22 1008.06 1006.84 1005.36 1004.34 1003.58 1003.04 1001.47 1000.50 1000.32 1000.41 999.52 998.62 997.67 997.86 998.86 999.68 1000.90 1002.18 1002.78 1002.16 1000.87 999.85 999.98 1000.60 1001.52 1003.00 1004.55 1005.21 1005.72 1004.39 1003.37 1002.76 1001.78 1000.95 1000.54 1000.95 1001.59 1002.17
1013.69 1011.68 1010.20 1009.44 1009.43 1009.70 1009.40 1007.73 1006.15 1004.71 1003.66 1002.96 1001.87 1000.80 1000.54 1000.62 1000.28 999.29 998.15 997.25 997.25 998.00 998.48 999.78 1001.25 1002.13 1001.88 1001.17 1000.44 1000.09 1000.48 1000.88 1002.00 1003.79 1003.81 1004.02 1003.56 1003.06 1002.56 1001.91 1001.38 1000.95 1001.12 1001.41 1001.85
1013.38 1012.20 1011.24 1010.45 1009.87 1009.68 1009.43 1007.87 1006.38 1005.24 1003.58 1003.04 1001.62 1001.25 1001.37 1000.85 1000.23 999.75 998.70 998.21 997.51 997.31 998.66 999.42 1001.15 1001.44 1000.93 1000.72 1000.28 1000.14 1000.27 1000.51 1001.36 1001.35 1002.50 1001.99 1002.47 1001.84 1001.44 1001.12 1000.76 1000.40 1000.81 1001.26 1001.68
1013.07 1012.17 1011.55 1010.79 1009.73 1009.32 1008.55 1007.54 1006.30 1005.06 1004.56 1002.85 1002.76 1001.69 1001.09 1000.84 1000.79 1000.70 1000.04 999.48 999.36 998.46 998.46 999.44 1000.74 1001.20 1001.15 1000.76 1000.39 1000.10 999.79 1000.00 1000.01 1000.15 1000.53 1000.77 1000.71 999.63 999.78 1000.62 1001.17 999.80 1000.70 1001.06 1001.12
1012.82 1011.75 1011.58 1010.57 1009.69 1008.91 1007.76 1006.86 1005.92 1005.47 1003.52 1002.93 1002.94 1001.92 1000.67 1000.48 1000.46 1000.14 1000.07 999.79 999.57 999.73 999.47 1000.08 1000.97 1001.91 1002.09 1001.31 1000.83 1000.52 999.71 999.52 999.59 999.59 999.61 1000.15 999.60 999.34 999.89 1000.30 1000.05 999.74 1000.30 1000.45 1000.49
Thickness
5745 5751 5757 5761 5766 5769 5773 5777 5781 5784 5787 5789 5793 5798 5804 5811 5821 5828 5831 5858 5862 5869 5869 5864 5858 5861 5865 5845 5844 5828 5794 5785 5799 5820 5828 5854 5842 5852 5856 5837 5841 5841 5837 5833 5828
5740 5745 5750 5756 5761 5766 5770 5774 5778 5782 5786 5790 5792 5797 5802 5807 5815 5826 5865 5870 5871 5870 5861 5852 5838 5848 5842 5843 5837 5816 5788 5801 5833 5840 5840 5847 5841 5846 5839 5832 5825 5827 5835 5832 5823
5733 5738 5744 5750 5756 5761 5767 5772 5776 5780 5785 5789 5793 5796 5801 5806 5811 5839 5871 5872 5872 5870 5862 5856 5849 5841 5837 5846 5835 5827 5820 5839 5847 5853 5852 5848 5845 5852 5832 5817 5822 5820 5821 5826 5821
5726 5731 5737 5743 5749 5755 5762 5767 5773 5778 5782 5787 5793 5799 5803 5804 5798 5856 5869 5871 5871 5868 5858 5850 5843 5828 5825 5826 5843 5823 5848 5854 5855 5860 5853 5843 5847 5836 5837 5833 5838 5838 5836 5825 5816
5720 5725 5731 5736 5742 5749 5756 5763 5769 5775 5780 5785 5791 5796 5803 5803 5817 5864 5866 5867 5867 5860 5849 5844 5835 5832 5820 5835 5844 5835 5846 5856 5861 5857 5851 5854 5837 5837 5832 5842 5847 5839 5826 5822 5817
5716 5720 5725 5731 5737 5744 5751 5759 5766 5772 5777 5782 5787 5792 5796 5791 5858 5865 5865 5862 5862 5854 5850 5848 5843 5844 5829 5834 5839 5857 5858 5856 5863 5853 5853 5842 5835 5839 5829 5839 5838 5833 5822 5821 5816
5711 5716 5720 5726 5732 5739 5746 5754 5762 5770 5775 5781 5785 5791 5793 5813 5857 5859 5857 5859 5867 5861 5847 5857 5856 5840 5841 5830 5856 5861 5843 5848 5853 5850 5843 5850 5825 5812 5833 5838 5828 5827 5820 5815 5812
5707 5712 5717 5722 5727 5733 5741 5750 5759 5767 5772 5778 5783 5788 5795 5850 5854 5854 5860 5854 5866 5867 5859 5865 5860 5848 5838 5852 5844 5834 5834 5811 5841 5841 5846 5844 5804 5807 5830 5827 5821 5826 5826 5825 5818
5704 5708 5714 5718 5723 5729 5737 5747 5758 5764 5768 5773 5777 5783 5793 5854 5845 5859 5859 5847 5854 5860 5863 5867 5858 5838 5839 5817 5801 5815 5795 5807 5822 5854 5845 5836 5819 5825 5831 5824 5819 5822 5821 5821 5823
5701 5705 5710 5715 5720 5725 5734 5747 5756 5759 5763 5768 5776 5773 5808 5824 5845 5855 5862 5855 5843 5843 5839 5840 5826 5811 5809 5797 5768 5790 5801 5814 5814 5844 5847 5831 5830 5827 5828 5828 5826 5824 5822 5809 5806
5698 5703 5707 5712 5716 5719 5728 5736 5743 5745 5755 5766 5779 5791 5812 5834 5852 5846 5854 5845 5839 5828 5804 5823 5798 5785 5809 5813 5813 5809 5806 5816 5838 5854 5842 5830 5829 5826 5833 5828 5818 5823 5822 5810 5799
5694 5699 5705 5709 5714 5716 5715 5723 5743 5751 5739 5771 5782 5791 5815 5819 5808 5832 5849 5820 5816 5798 5810 5801 5784 5816 5821 5820 5813 5811 5810 5816 5840 5854 5842 5831 5825 5827 5827 5823 5830 5826 5821 5811 5806
5689 5695 5700 5707 5714 5716 5715 5729 5752 5750 5734 5766 5784 5787 5801 5813 5804 5819 5835 5823 5812 5796 5799 5783 5805 5822 5815 5813 5808 5808 5805 5820 5827 5841 5835 5828 5801 5812 5823 5819 5826 5829 5833 5810 5815
5686 5691 5695 5703 5712 5709 5721 5744 5744 5745 5707 5747 5772 5798 5806 5811 5799 5836 5841 5825 5810 5794 5795 5791 5823 5811 5807 5803 5812 5791 5840 5844 5835 5814 5784 5815 5764 5795 5813 5813 5817 5821 5821 5817 5815
5683 5687 5689 5689 5693 5701 5733 5735 5740 5734 5680 5770 5778 5822 5811 5797 5810 5822 5843 5825 5800 5803 5795 5795 5809 5802 5797 5812 5827 5814 5843 5841 5837 5812 5795 5791 5774 5799 5801 5798 5813 5811 5815 5818 5821
5681 5683 5685 5689 5689 5711 5719 5728 5731 5688 5681 5756 5784 5783 5781 5790 5798 5813 5815 5826 5821 5798 5804 5802 5829 5817 5821 5834 5835 5845 5834 5816 5800 5784 5753 5781 5775 5777 5800 5823 5817 5815 5816 5819 5819
5681 5683 5681 5683 5697 5709 5714 5715 5677 5667 5742 5757 5764 5776 5772 5772 5780 5787 5788 5786 5774 5761 5768 5792 5804 5824 5833 5814 5829 5834 5796 5753 5755 5743 5746 5771 5767 5787 5826 5833 5835 5831 5821 5832 5830
5683 5686 5690 5691 5698 5696 5703 5685 5667 5708 5720 5754 5760 5755 5752 5766 5770 5779 5774 5770 5782 5783 5761 5758 5764 5814 5835 5818 5812 5814 5797 5753 5745 5732 5748 5773 5765 5801 5840 5845 5847 5844 5844 5842 5824
5684 5689 5690 5703 5693 5689 5687 5659 5675 5709 5741 5729 5746 5740 5742 5759 5769 5766 5763 5770 5788 5787 5761 5756 5772 5825 5832 5839 5829 5815 5789 5814 5772 5762 5748 5762 5788 5819 5844 5844 5842 5841 5843 5838 5839
5681 5684 5695 5706 5696 5689 5673 5667 5691 5728 5731 5733 5722 5748 5728 5746 5751 5752 5756 5785 5788 5798 5802 5788 5766 5809 5828 5838 5840 5821 5828 5787 5761 5749 5743 5752 5767 5774 5814 5822 5831 5844 5841 5841 5843
5678 5682 5701 5702 5695 5675 5656 5670 5706 5730 5731 5724 5727 5727 5746 5746 5754 5750 5764 5792 5801 5803 5797 5793 5775 5794 5812 5804 5800 5809 5801 5790 5780 5761 5734 5727 5753 5807 5818 5819 5831 5844 5849 5844 5844
5673 5671 5696 5697 5665 5661 5659 5682 5706 5719 5729 5724 5740 5747 5750 5760 5755 5758 5766 5788 5817 5814 5789 5792 5768 5758 5777 5819 5829 5825 5810 5797 5758 5764 5758 5753 5763 5820 5826 5824 5837 5841 5842 5847 5843
5659 5674 5690 5688 5652 5653 5670 5686 5700 5708 5718 5725 5726 5746 5763 5759 5749 5763 5783 5818 5818 5811 5798 5793 5761 5752 5762 5794 5820 5813 5819 5808 5789 5773 5767 5751 5766 5816 5820 5831 5839 5843 5839 5835 5836
5654 5664 5667 5672 5669 5666 5663 5680 5695 5723 5730 5736 5747 5761 5757 5750 5760 5767 5780 5813 5822 5819 5821 5814 5769 5762 5746 5779 5802 5805 5811 5815 5797 5762 5773 5770 5787 5806 5813 5822 5830 5837 5834 5839 5839
5656 5658 5659 5651 5660 5664 5664 5677 5688 5697 5726 5730 5741 5745 5739 5740 5750 5758 5778 5785 5815 5819 5811 5802 5772 5778 5792 5799 5810 5807 5806 5808 5794 5799 5785 5799 5793 5809 5818 5823 5830 5841 5840 5837 5835
5657 5658 5655 5652 5666 5664 5667 5678 5687 5707 5712 5725 5721 5737 5746 5747 5752 5749 5767 5771 5774 5796 5807 5800 5774 5791 5792 5800 5796 5795 5803 5810 5808 5811 5808 5805 5801 5839 5841 5828 5822 5840 5833 5831 5832
5656 5662 5656 5660 5668 5670 5676 5686 5694 5702 5723 5731 5729 5728 5741 5752 5763 5772 5780 5782 5788 5784 5789 5786 5772 5759 5757 5785 5784 5769 5800 5812 5816 5821 5821 5793 5815 5832 5825 5824 5827 5831 5827 5829 5833